Regional Weather Roundup
Issued by NWS Goodland, KS

Home | Current Version | Previous Version | Graphics & Text | Print | Product List | Glossary On
Versions: 1 2 3 4 5 6 7 8 9 10 11 12 13 14 15 16 17 18 19 20 21 22 23 24 25 26 27 28 29 30 31 32 33 34 35 36 37 38 39 40 41 42 43 44 45 46 47 48 49 50
000
ASUS43 KGLD 311308
RWRGLD

GOODLAND FORECAST AREA HOURLY WEATHER ROUNDUP
NATIONAL WEATHER SERVICE GOODLAND KS
700 AM MDT WED AUG 31 2016

...OFFICIAL OBSERVATIONS...

CITY           SKY/WX    TMP DP  RH WIND       PRES   REMARKS
GOODLAND KS    FOG       63  63 100 S8        30.23S VSB 1/2
HILL CITY KS   FOG       64  64 100 CALM      30.20R VSB 1/2
IMPERIAL NEB   CLOUDY    65  64  97 NE5       30.24S FOG
MCCOOK NEB     CLOUDY    66  64  93 E5        30.22R FOG
AKRON CO       FOG       57  56  96 SE5       30.28R VSB<1/4
BURLINGTON CO  PTCLDY    54  52  93 CALM      30.26S FOG
LIMON CO       CLEAR     47  46  97 CALM      30.31R
$$

...UNOFFICIAL OBSERVATIONS...

CITY           SKY/WX    TMP DP  RH WIND       PRES   REMARKS
COLBY KS       FOG       64  64 100 E5        30.24R VSB 1
LENORA KS        N/A     64  32  30 MISG        N/A
NORTON KS      CLOUDY    68  64  88 N5        30.21R
SHARON SPRINGS   N/A     61  60  96 CALM        N/A
TRENTON NEB      N/A     64  32  30 MISG        N/A
KIT CARSON CO    N/A     58  53  85 CALM        N/A
YUMA CO          N/A     61  60  97 CALM        N/A
$$




USA.gov is the U.S. government's official web portal to all federal, state and local government web resources and services.